This is the latest recevied weather packets stored in our database for station/object K5IDL. If no packets are shown the sender has not sent any weather packets the latest 10 day(s).
| Time | Temp. | Humidity | Pressure | Rain* | Wind** | Luminosity | Snow |
|---|---|---|---|---|---|---|---|
| 1777785848 | 17.22° C | 58% | 1020.7 hPa | 0 mm | - | 0 W/m² | - |
| 1777785544 | 17.22° C | 59% | 1020.6 hPa | 0 mm | - | 0 W/m² | - |
| 1777785240 | 17.22° C | 60% | 1020.6 hPa | 0 mm | - | 0 W/m² | - |
| 1777784938 | 17.22° C | 60% | 1020.5 hPa | 0 mm | - | 0 W/m² | - |
| 1777784634 | 17.22° C | 59% | 1020.6 hPa | 0 mm | - | 0 W/m² | - |
| 1777784331 | 17.78° C | 59% | 1020.6 hPa | 0 mm | - | 0 W/m² | - |
| 1777784029 | 17.78° C | 58% | 1020.6 hPa | 0 mm | - | 0 W/m² | - |
| 1777783725 | 17.22° C | 57% | 1020.5 hPa | 0 mm | - | 0 W/m² | - |
| 1777783422 | 17.78° C | 60% | 1020.4 hPa | 0 mm | - | 0 W/m² | - |
| 1777783119 | 17.78° C | 59% | 1020.4 hPa | 0 mm | - | 0 W/m² | - |
| 1777782816 | 17.78° C | 59% | 1020.5 hPa | 0 mm | - | 0 W/m² | - |
| 1777782512 | 17.22° C | 60% | 1020.6 hPa | 0 mm | - | 0 W/m² | - |
| 1777782209 | 17.78° C | 61% | 1020.5 hPa | 0 mm | - | 0 W/m² | - |
| 1777781905 | 17.78° C | 61% | 1020.4 hPa | 0 mm | - | 0 W/m² | - |
| 1777781603 | 17.22° C | 58% | 1020.3 hPa | 0 mm | - | 0 W/m² | - |
| 1777781300 | 17.22° C | 61% | 1020.5 hPa | 0 mm | - | 0 W/m² | - |
| 1777780998 | 17.78° C | 65% | 1020.8 hPa | 0 mm | - | 0 W/m² | - |
| 1777780695 | 17.78° C | 63% | 1020.7 hPa | 0 mm | - | 0 W/m² | - |
| 1777780392 | 17.78° C | 60% | 1020.5 hPa | 0 mm | - | 0 W/m² | - |
| 1777780089 | 17.78° C | 59% | 1020.6 hPa | 0 mm | - | 0 W/m² | - |
| 1777779786 | 18.33° C | 58% | 1020.5 hPa | 0 mm | - | 0 W/m² | - |
| 1777779483 | 18.89° C | 54% | 1020.5 hPa | 0 mm | - | 0 W/m² | - |
| 1777779181 | 18.89° C | 54% | 1020.6 hPa | 0 mm | - | 0 W/m² | - |
| 1777778878 | 18.33° C | 54% | 1020.4 hPa | 0 mm | - | 0 W/m² | - |
| 1777778577 | 17.78° C | 55% | 1020.4 hPa | 0 mm | - | 0 W/m² | - |
* Rain latest hour (hover to see other rain measurements)
** Current wind speed in m/s (hover to see current wind gust speed)